Location: Molveno
(46.1500°N, 10.9667°E)
Time: 07:57:24
(UTC+00:00)

Cosmos 1606 - Pass Details

Date: 05 July 2020
Orbit: 505 x 527 km, 82.5° (Epoch: 06 August)

Event Time Altitude Azimuth Distance (km) Brightness Sun altitude
Rises 22:45:45 0° 350° (N) 2,663 7.9 -20.7°
Reaches altitude 10° 22:47:53 10° 349° (N) 1,773 6.6 -20.8°
Maximum altitude 22:51:47 80° 262° (W) 540 2.6 -20.9°
Enters shadow 22:52:09 70° 203° (SSW) 563 2.6 -20.9°
